Time,TemperatureF,DewpointF,PressureIn,WindDirection,WindDirectionDegrees,WindSpeedMPH,WindSpeedGustMPH,Humidity,HourlyPrecipIn,Conditions,Clouds,dailyrainin,SoftwareType,DateUTC
2013-06-05 00:01:00,70.4,66.7,29.05,NNE,22,0.0,0.0,88,0.00,,,0.00,Rainwise IP-100,2013-06-05 04:01:00,
2013-06-05 00:06:00,70.4,66.7,29.05,NNE,22,0.0,0.0,88,0.00,,,0.00,Rainwise IP-100,2013-06-05 04:06:00,
2013-06-05 00:11:00,70.4,66.7,29.06,NNE,22,0.0,0.0,88,0.00,,,0.00,Rainwise IP-100,2013-06-05 04:11:00,
2013-06-05 00:16:00,70.3,66.7,29.05,NNE,22,0.0,0.0,88,0.00,,,0.00,Rainwise IP-100,2013-06-05 04:16:00,
2013-06-05 00:21:00,70.3,66.7,29.06,NNE,22,0.0,0.0,88,0.00,,,0.00,Rainwise IP-100,2013-06-05 04:21:00,
2013-06-05 00:26:00,70.3,66.7,29.06,NNE,22,0.0,0.0,88,0.00,,,0.00,Rainwise IP-100,2013-06-05 04:26:00,
2013-06-05 00:31:00,70.2,66.3,29.06,NNE,22,0.0,0.0,88,0.00,,,0.00,Rainwise IP-100,2013-06-05 04:31:00,
2013-06-05 00:36:00,70.1,66.7,29.06,NNE,22,0.0,0.0,89,0.00,,,0.00,Rainwise IP-100,2013-06-05 04:36:00,
2013-06-05 00:41:00,70.1,66.7,29.06,NNE,22,0.0,0.0,89,0.00,,,0.00,Rainwise IP-100,2013-06-05 04:41:00,
2013-06-05 00:46:00,70.0,66.7,29.05,NNE,22,0.0,0.0,89,0.00,,,0.00,Rainwise IP-100,2013-06-05 04:46:00,
2013-06-05 00:51:00,69.9,66.7,29.06,NNE,22,0.0,0.0,89,0.00,,,0.00,Rainwise IP-100,2013-06-05 04:51:00,
2013-06-05 00:56:00,69.9,66.7,29.06,NNE,22,0.0,0.0,89,0.00,,,0.00,Rainwise IP-100,2013-06-05 04:56:00,
2013-06-05 01:01:00,69.9,67.0,29.06,NNE,22,0.0,0.0,90,0.00,,,0.00,Rainwise IP-100,2013-06-05 05:01:00,
2013-06-05 01:06:00,69.9,67.0,29.06,NNE,22,0.0,0.0,90,0.00,,,0.00,Rainwise IP-100,2013-06-05 05:06:00,
2013-06-05 01:11:00,69.9,67.0,29.05,NNE,22,0.0,0.0,90,0.00,,,0.00,Rainwise IP-100,2013-06-05 05:11:00,
2013-06-05 01:16:00,70.0,67.0,29.06,NNE,22,0.0,0.0,90,0.00,,,0.00,Rainwise IP-100,2013-06-05 05:16:00,
2013-06-05 01:21:00,70.1,67.0,29.05,NNE,22,0.0,0.0,90,0.00,,,0.00,Rainwise IP-100,2013-06-05 05:21:00,
2013-06-05 01:26:00,70.2,67.0,29.05,NNE,22,0.0,0.0,90,0.00,,,0.00,Rainwise IP-100,2013-06-05 05:26:00,
2013-06-05 01:31:00,70.2,67.0,29.05,NNE,22,0.0,0.0,90,0.00,,,0.00,Rainwise IP-100,2013-06-05 05:31:00,
2013-06-05 01:36:00,70.3,67.5,29.05,NNE,22,0.0,0.0,90,0.00,,,0.00,Rainwise IP-100,2013-06-05 05:36:00,
2013-06-05 01:41:00,70.4,67.5,29.05,NNE,22,0.0,0.0,90,0.00,,,0.00,Rainwise IP-100,2013-06-05 05:41:00,
2013-06-05 01:46:00,70.6,67.5,29.06,NNE,22,0.0,0.0,91,0.00,,,0.00,Rainwise IP-100,2013-06-05 05:46:00,
2013-06-05 01:51:00,70.9,68.0,29.05,East,90,0.0,0.0,91,0.00,,,0.00,Rainwise IP-100,2013-06-05 05:51:00,
2013-06-05 01:56:00,71.2,68.5,29.05,East,90,0.0,0.0,91,0.00,,,0.00,Rainwise IP-100,2013-06-05 05:56:00,
2013-06-05 02:00:00,71.3,68.0,29.05,East,90,0.0,0.0,90,0.00,,,0.00,Rainwise IP-100,2013-06-05 06:00:00,
2013-06-05 02:05:00,71.3,68.0,29.05,East,90,0.0,0.0,90,0.00,,,0.00,Rainwise IP-100,2013-06-05 06:05:00,
2013-06-05 02:06:00,71.2,68.0,29.05,East,90,0.0,0.0,90,0.00,,,0.00,Rainwise IP-100,2013-06-05 06:06:00,
2013-06-05 02:11:00,71.2,68.0,29.05,East,90,0.0,0.0,90,0.00,,,0.00,Rainwise IP-100,2013-06-05 06:11:00,
2013-06-05 02:16:00,71.2,68.0,29.05,East,90,0.0,0.0,90,0.00,,,0.00,Rainwise IP-100,2013-06-05 06:16:00,
2013-06-05 02:21:00,71.1,68.0,29.05,East,90,0.0,0.0,91,0.00,,,0.00,Rainwise IP-100,2013-06-05 06:21:00,
2013-06-05 02:26:00,70.9,68.0,29.04,East,90,0.0,0.0,91,0.00,,,0.00,Rainwise IP-100,2013-06-05 06:26:00,
2013-06-05 02:31:00,70.9,68.0,29.04,East,90,0.0,0.0,91,0.00,,,0.00,Rainwise IP-100,2013-06-05 06:31:00,
2013-06-05 02:36:00,70.8,68.0,29.04,East,90,0.0,0.0,91,0.00,,,0.00,Rainwise IP-100,2013-06-05 06:36:00,
2013-06-05 02:41:00,70.7,67.5,29.04,East,90,0.0,0.0,91,0.00,,,0.00,Rainwise IP-100,2013-06-05 06:41:00,
2013-06-05 02:46:00,70.7,67.5,29.04,East,90,0.0,0.0,91,0.00,,,0.00,Rainwise IP-100,2013-06-05 06:46:00,
2013-06-05 02:51:00,70.6,67.5,29.04,East,90,0.0,0.0,91,0.00,,,0.00,Rainwise IP-100,2013-06-05 06:51:00,
2013-06-05 02:56:00,70.5,67.5,29.04,East,90,0.0,0.0,91,0.00,,,0.00,Rainwise IP-100,2013-06-05 06:56:00,
2013-06-05 03:01:00,70.4,67.5,29.03,East,90,0.0,0.0,91,0.00,,,0.00,Rainwise IP-100,2013-06-05 07:01:00,
2013-06-05 03:06:00,70.2,67.5,29.03,East,90,0.0,0.0,92,0.00,,,0.00,Rainwise IP-100,2013-06-05 07:06:00,
2013-06-05 03:11:00,70.1,67.5,29.03,East,90,0.0,0.0,92,0.00,,,0.00,Rainwise IP-100,2013-06-05 07:11:00,
2013-06-05 03:16:00,70.0,67.5,29.03,East,90,0.0,0.0,92,0.00,,,0.00,Rainwise IP-100,2013-06-05 07:16:00,
2013-06-05 03:21:00,69.9,67.5,29.03,East,90,0.0,0.0,92,0.00,,,0.00,Rainwise IP-100,2013-06-05 07:21:00,
2013-06-05 03:26:00,69.8,67.0,29.03,East,90,0.0,0.0,92,0.00,,,0.00,Rainwise IP-100,2013-06-05 07:26:00,
2013-06-05 03:31:00,69.7,67.0,29.02,East,90,0.0,0.0,92,0.00,,,0.00,Rainwise IP-100,2013-06-05 07:31:00,
2013-06-05 03:36:00,69.7,67.5,29.02,East,90,0.0,0.0,93,0.00,,,0.00,Rainwise IP-100,2013-06-05 07:36:00,
2013-06-05 03:41:00,69.5,67.5,29.02,East,90,0.0,0.0,93,0.00,,,0.00,Rainwise IP-100,2013-06-05 07:41:00,
2013-06-05 03:46:00,69.4,67.0,29.02,East,90,0.0,0.0,93,0.00,,,0.00,Rainwise IP-100,2013-06-05 07:46:00,
2013-06-05 03:51:00,69.4,67.0,29.03,East,90,0.0,0.0,93,0.00,,,0.00,Rainwise IP-100,2013-06-05 07:51:00,
2013-06-05 03:56:00,69.2,67.5,29.03,East,90,0.0,0.0,94,0.00,,,0.00,Rainwise IP-100,2013-06-05 07:56:00,
2013-06-05 04:01:00,69.1,67.0,29.03,East,90,0.0,0.0,94,0.00,,,0.00,Rainwise IP-100,2013-06-05 08:01:00,
2013-06-05 04:06:00,69.0,67.0,29.03,East,90,0.0,0.0,94,0.00,,,0.00,Rainwise IP-100,2013-06-05 08:06:00,
2013-06-05 04:11:00,68.9,67.0,29.03,East,90,0.0,0.0,94,0.00,,,0.00,Rainwise IP-100,2013-06-05 08:11:00,
2013-06-05 04:16:00,68.9,67.0,29.04,East,90,0.0,0.0,94,0.00,,,0.00,Rainwise IP-100,2013-06-05 08:16:00,
2013-06-05 04:21:00,68.9,67.0,29.04,East,90,0.0,0.0,94,0.00,,,0.00,Rainwise IP-100,2013-06-05 08:21:00,
2013-06-05 04:26:00,68.9,67.0,29.04,East,90,0.0,0.0,94,0.00,,,0.00,Rainwise IP-100,2013-06-05 08:26:00,
2013-06-05 04:31:00,68.9,67.0,29.05,East,90,0.0,0.0,95,0.00,,,0.00,Rainwise IP-100,2013-06-05 08:31:00,
2013-06-05 04:36:00,68.9,67.0,29.05,East,90,0.0,0.0,95,0.00,,,0.00,Rainwise IP-100,2013-06-05 08:36:00,
2013-06-05 04:41:00,68.9,67.0,29.05,East,90,0.0,0.0,95,0.00,,,0.00,Rainwise IP-100,2013-06-05 08:41:00,
2013-06-05 04:46:00,69.0,67.0,29.04,East,90,0.0,0.0,95,0.00,,,0.00,Rainwise IP-100,2013-06-05 08:46:00,
2013-06-05 04:51:00,69.1,67.0,29.04,NE,45,0.0,0.0,95,0.00,,,0.00,Rainwise IP-100,2013-06-05 08:51:00,
2013-06-05 04:56:00,69.2,68.0,29.05,NE,45,0.0,0.0,96,0.00,,,0.00,Rainwise IP-100,2013-06-05 08:56:00,
2013-06-05 05:01:00,69.3,68.0,29.05,NE,45,0.0,0.0,96,0.00,,,0.00,Rainwise IP-100,2013-06-05 09:01:00,
2013-06-05 05:06:00,69.4,68.0,29.04,NE,45,0.0,0.0,96,0.00,,,0.00,Rainwise IP-100,2013-06-05 09:06:00,
2013-06-05 05:11:00,69.6,68.5,29.05,NE,45,0.0,0.0,96,0.00,,,0.00,Rainwise IP-100,2013-06-05 09:11:00,
2013-06-05 05:16:00,69.8,68.5,29.05,NE,45,0.0,0.0,96,0.00,,,0.00,Rainwise IP-100,2013-06-05 09:16:00,
2013-06-05 05:21:00,69.9,69.0,29.05,NE,45,0.0,0.0,96,0.00,,,0.00,Rainwise IP-100,2013-06-05 09:21:00,
2013-06-05 05:26:00,70.2,69.0,29.05,NE,45,0.0,0.0,96,0.00,,,0.00,Rainwise IP-100,2013-06-05 09:26:00,
2013-06-05 05:31:00,70.3,69.3,29.05,NE,45,0.0,0.0,96,0.00,,,0.00,Rainwise IP-100,2013-06-05 09:31:00,
2013-06-05 05:36:00,70.5,69.3,29.05,NNE,22,0.0,0.0,96,0.00,,,0.00,Rainwise IP-100,2013-06-05 09:36:00,
2013-06-05 05:41:00,70.7,69.0,29.05,NNE,22,0.0,2.6,95,0.00,,,0.00,Rainwise IP-100,2013-06-05 09:41:00,
2013-06-05 05:46:00,70.8,69.3,29.05,NNE,22,0.0,2.1,95,0.00,,,0.00,Rainwise IP-100,2013-06-05 09:46:00,
2013-06-05 05:51:00,70.8,69.3,29.05,NNE,22,0.0,0.0,95,0.00,,,0.00,Rainwise IP-100,2013-06-05 09:51:00,
2013-06-05 05:56:00,70.8,69.3,29.05,NNE,22,0.0,1.2,95,0.00,,,0.00,Rainwise IP-100,2013-06-05 09:56:00,
2013-06-05 06:01:00,70.9,69.3,29.05,NNE,22,0.0,2.1,95,0.00,,,0.00,Rainwise IP-100,2013-06-05 10:01:00,
2013-06-05 06:06:00,70.9,69.3,29.05,NNE,22,1.4,2.6,95,0.00,,,0.00,Rainwise IP-100,2013-06-05 10:06:00,
2013-06-05 06:11:00,70.9,69.3,29.05,NNE,22,1.9,3.5,95,0.00,,,0.00,Rainwise IP-100,2013-06-05 10:11:00,
2013-06-05 06:16:00,70.9,69.3,29.05,NNE,22,1.9,2.8,95,0.00,,,0.00,Rainwise IP-100,2013-06-05 10:16:00,
2013-06-05 06:21:00,70.9,69.3,29.05,NNE,22,1.2,4.0,95,0.00,,,0.00,Rainwise IP-100,2013-06-05 10:21:00,
2013-06-05 06:26:00,70.8,69.3,29.05,NNE,22,0.0,2.8,95,0.00,,,0.00,Rainwise IP-100,2013-06-05 10:26:00,
2013-06-05 06:31:00,70.8,69.3,29.06,NNE,22,0.0,0.0,95,0.00,,,0.00,Rainwise IP-100,2013-06-05 10:31:00,
2013-06-05 06:36:00,70.7,69.0,29.06,NNE,22,0.0,1.4,95,0.00,,,0.00,Rainwise IP-100,2013-06-05 10:36:00,
2013-06-05 06:42:00,70.6,69.0,29.06,NNE,22,0.0,0.0,95,0.00,,,0.00,Rainwise IP-100,2013-06-05 10:42:00,
2013-06-05 06:47:00,70.6,69.0,29.06,NNE,22,0.0,1.2,95,0.00,,,0.00,Rainwise IP-100,2013-06-05 10:47:00,
2013-06-05 06:52:00,70.5,69.0,29.06,NNE,22,1.2,1.4,95,0.00,,,0.00,Rainwise IP-100,2013-06-05 10:52:00,
2013-06-05 06:57:00,70.5,69.0,29.06,NNE,22,0.0,1.2,95,0.00,,,0.00,Rainwise IP-100,2013-06-05 10:57:00,
2013-06-05 07:02:00,70.5,69.0,29.07,NNE,22,0.0,0.0,95,0.00,,,0.00,Rainwise IP-100,2013-06-05 11:02:00,
2013-06-05 07:07:00,70.5,69.0,29.07,NNE,22,0.0,0.0,95,0.00,,,0.00,Rainwise IP-100,2013-06-05 11:07:00,
2013-06-05 07:12:00,70.5,69.0,29.07,NNE,22,0.0,0.0,95,0.00,,,0.00,Rainwise IP-100,2013-06-05 11:12:00,
2013-06-05 07:17:00,70.6,69.0,29.07,NNE,22,1.4,1.6,95,0.00,,,0.00,Rainwise IP-100,2013-06-05 11:17:00,
2013-06-05 07:22:00,70.6,69.0,29.07,NNE,22,0.0,1.6,95,0.00,,,0.00,Rainwise IP-100,2013-06-05 11:22:00,
2013-06-05 07:27:00,70.7,69.0,29.08,NNE,22,0.0,0.0,94,0.00,,,0.00,Rainwise IP-100,2013-06-05 11:27:00,
2013-06-05 07:32:00,70.7,69.0,29.08,NNE,22,0.0,0.0,94,0.00,,,0.00,Rainwise IP-100,2013-06-05 11:32:00,
2013-06-05 07:37:00,70.7,69.0,29.08,NNE,22,0.0,0.0,95,0.00,,,0.00,Rainwise IP-100,2013-06-05 11:37:00,
2013-06-05 07:42:00,70.8,69.0,29.08,NNE,22,0.0,0.0,94,0.00,,,0.00,Rainwise IP-100,2013-06-05 11:42:00,
2013-06-05 07:47:00,70.9,69.0,29.08,NNE,22,0.0,0.0,94,0.00,,,0.00,Rainwise IP-100,2013-06-05 11:47:00,
2013-06-05 07:52:00,71.0,69.0,29.08,NNE,22,0.0,2.6,94,0.00,,,0.00,Rainwise IP-100,2013-06-05 11:52:00,
2013-06-05 07:57:00,71.2,69.3,29.08,NNE,22,0.0,1.2,94,0.00,,,0.00,Rainwise IP-100,2013-06-05 11:57:00,
2013-06-05 08:02:00,71.3,69.3,29.08,NNE,22,1.4,2.3,93,0.00,,,0.00,Rainwise IP-100,2013-06-05 12:02:00,
2013-06-05 08:07:00,71.4,69.3,29.08,NNE,22,0.0,3.0,93,0.00,,,0.00,Rainwise IP-100,2013-06-05 12:07:00,
2013-06-05 08:12:00,71.5,69.7,29.08,WSW,247,0.0,2.8,93,0.00,,,0.00,Rainwise IP-100,2013-06-05 12:12:00,
2013-06-05 08:17:00,71.6,69.3,29.08,NNE,22,0.0,3.3,92,0.00,,,0.00,Rainwise IP-100,2013-06-05 12:17:00,
2013-06-05 08:22:00,71.7,69.3,29.08,North,0,0.0,2.1,92,0.00,,,0.00,Rainwise IP-100,2013-06-05 12:22:00,
2013-06-05 08:27:00,71.9,69.7,29.08,North,0,0.0,2.6,92,0.00,,,0.00,Rainwise IP-100,2013-06-05 12:27:00,
2013-06-05 08:32:00,72.1,69.3,29.07,NNE,22,1.4,2.6,91,0.00,,,0.00,Rainwise IP-100,2013-06-05 12:32:00,
2013-06-05 08:37:00,72.4,69.7,29.07,North,0,4.7,4.7,91,0.00,,,0.00,Rainwise IP-100,2013-06-05 12:37:00,
2013-06-05 08:42:00,72.6,69.7,29.07,NNE,22,0.0,4.9,90,0.00,,,0.00,Rainwise IP-100,2013-06-05 12:42:00,
2013-06-05 08:47:00,72.8,69.7,29.07,NNE,22,2.1,4.4,90,0.00,,,0.00,Rainwise IP-100,2013-06-05 12:47:00,
2013-06-05 08:52:00,73.0,69.7,29.07,WSW,247,0.0,5.4,89,0.00,,,0.00,Rainwise IP-100,2013-06-05 12:52:00,
2013-06-05 08:57:00,73.2,70.0,29.06,NNE,22,3.0,7.0,89,0.00,,,0.00,Rainwise IP-100,2013-06-05 12:57:00,
2013-06-05 09:02:00,73.5,70.0,29.07,North,0,3.3,3.7,88,0.00,,,0.00,Rainwise IP-100,2013-06-05 13:02:00,
2013-06-05 09:07:00,73.7,69.7,29.07,NNE,22,4.7,5.1,87,0.00,,,0.00,Rainwise IP-100,2013-06-05 13:07:00,
2013-06-05 09:12:00,74.1,70.0,29.07,NW,315,1.4,7.5,87,0.00,,,0.00,Rainwise IP-100,2013-06-05 13:12:00,
2013-06-05 09:17:00,74.3,70.0,29.07,NNE,22,0.0,7.2,86,0.00,,,0.00,Rainwise IP-100,2013-06-05 13:17:00,
2013-06-05 09:22:00,74.3,70.0,29.07,North,0,4.0,4.0,86,0.00,,,0.00,Rainwise IP-100,2013-06-05 13:22:00,
2013-06-05 09:27:00,74.3,70.0,29.07,North,0,0.0,4.4,86,0.00,,,0.00,Rainwise IP-100,2013-06-05 13:27:00,
2013-06-05 09:32:00,74.3,70.0,29.07,NNE,22,0.0,4.2,86,0.00,,,0.00,Rainwise IP-100,2013-06-05 13:32:00,
2013-06-05 09:37:00,74.4,70.0,29.08,SSE,157,0.0,3.0,86,0.00,,,0.00,Rainwise IP-100,2013-06-05 13:37:00,
2013-06-05 09:42:00,74.5,70.0,29.07,NNW,337,1.4,3.3,85,0.00,,,0.00,Rainwise IP-100,2013-06-05 13:42:00,
2013-06-05 09:47:00,74.6,70.0,29.07,NNE,22,0.0,4.4,85,0.00,,,0.00,Rainwise IP-100,2013-06-05 13:47:00,
2013-06-05 09:52:00,74.6,70.0,29.07,SSE,157,1.6,3.3,85,0.00,,,0.00,Rainwise IP-100,2013-06-05 13:52:00,
2013-06-05 09:57:00,74.6,70.0,29.07,SSW,202,1.2,2.6,85,0.00,,,0.00,Rainwise IP-100,2013-06-05 13:57:00,
2013-06-05 10:02:00,74.6,70.0,29.07,SSW,202,0.0,2.1,85,0.00,,,0.00,Rainwise IP-100,2013-06-05 14:02:00,
2013-06-05 10:07:00,74.8,70.0,29.07,SSW,202,2.1,3.5,85,0.00,,,0.00,Rainwise IP-100,2013-06-05 14:07:00,
2013-06-05 10:12:00,75.0,70.0,29.07,North,0,0.0,4.0,84,0.00,,,0.00,Rainwise IP-100,2013-06-05 14:12:00,
2013-06-05 10:17:00,75.2,69.7,29.07,NNW,337,1.6,1.6,83,0.00,,,0.00,Rainwise IP-100,2013-06-05 14:17:00,
2013-06-05 10:22:00,75.4,70.0,29.06,SSW,202,1.9,3.0,83,0.00,,,0.00,Rainwise IP-100,2013-06-05 14:22:00,
2013-06-05 10:27:00,75.8,70.0,29.06,NNE,22,1.6,5.8,82,0.00,,,0.00,Rainwise IP-100,2013-06-05 14:27:00,
2013-06-05 10:32:00,76.0,70.0,29.06,WNW,292,0.0,3.7,82,0.00,,,0.00,Rainwise IP-100,2013-06-05 14:32:00,
2013-06-05 10:37:00,76.1,69.7,29.06,SSW,202,0.0,2.3,81,0.00,,,0.00,Rainwise IP-100,2013-06-05 14:37:00,
2013-06-05 10:42:00,76.3,70.0,29.07,NNW,337,0.0,3.0,81,0.00,,,0.00,Rainwise IP-100,2013-06-05 14:42:00,
2013-06-05 10:47:00,76.2,69.7,29.07,SW,225,0.0,3.7,80,0.00,,,0.00,Rainwise IP-100,2013-06-05 14:47:00,
2013-06-05 10:52:00,76.0,69.3,29.07,NNE,22,3.0,3.0,80,0.00,,,0.00,Rainwise IP-100,2013-06-05 14:52:00,
2013-06-05 10:57:00,76.0,69.3,29.07,WSW,247,0.0,4.7,80,0.00,,,0.00,Rainwise IP-100,2013-06-05 14:57:00,
2013-06-05 11:01:00,76.0,69.7,29.06,NNW,337,1.9,3.5,81,0.00,,,0.00,Rainwise IP-100,2013-06-05 15:01:00,
2013-06-05 11:06:00,76.1,69.7,29.07,NNE,22,2.6,4.7,81,0.00,,,0.00,Rainwise IP-100,2013-06-05 15:06:00,
2013-06-05 11:11:00,76.0,69.7,29.07,NNE,22,0.0,6.5,81,0.00,,,0.00,Rainwise IP-100,2013-06-05 15:11:00,
2013-06-05 11:16:00,76.0,69.7,29.07,SSW,202,0.0,3.5,81,0.00,,,0.00,Rainwise IP-100,2013-06-05 15:16:00,
2013-06-05 11:21:00,76.0,69.7,29.08,North,0,0.0,3.5,81,0.00,,,0.00,Rainwise IP-100,2013-06-05 15:21:00,
2013-06-05 11:26:00,76.0,69.7,29.08,North,0,2.1,4.2,81,0.00,,,0.00,Rainwise IP-100,2013-06-05 15:26:00,
2013-06-05 11:32:00,75.9,70.0,29.08,NNE,22,0.0,2.8,82,0.00,,,0.00,Rainwise IP-100,2013-06-05 15:32:00,
2013-06-05 11:36:00,75.6,69.7,29.08,SW,225,0.0,4.7,82,0.00,,,0.00,Rainwise IP-100,2013-06-05 15:36:00,
2013-06-05 11:41:00,75.5,69.7,29.08,NNE,22,0.0,3.3,82,0.00,,,0.00,Rainwise IP-100,2013-06-05 15:41:00,
2013-06-05 11:46:00,75.4,69.7,29.08,NNW,337,0.0,2.6,82,0.00,,,0.00,Rainwise IP-100,2013-06-05 15:46:00,
2013-06-05 11:51:00,75.3,69.7,29.08,SSW,202,0.0,2.6,82,0.00,,,0.00,Rainwise IP-100,2013-06-05 15:51:00,
2013-06-05 11:56:00,75.3,69.7,29.08,SSW,202,0.0,1.2,82,0.00,,,0.00,Rainwise IP-100,2013-06-05 15:56:00,
2013-06-05 12:01:00,75.3,69.7,29.08,NNW,337,0.0,2.1,82,0.00,,,0.00,Rainwise IP-100,2013-06-05 16:01:00,
2013-06-05 12:06:00,75.5,69.7,29.08,WSW,247,0.0,4.0,82,0.00,,,0.00,Rainwise IP-100,2013-06-05 16:06:00,
2013-06-05 12:11:00,75.7,69.7,29.08,SE,135,0.0,1.6,82,0.00,,,0.00,Rainwise IP-100,2013-06-05 16:11:00,
2013-06-05 12:16:00,75.8,70.0,29.08,NNE,22,0.0,2.8,82,0.00,,,0.00,Rainwise IP-100,2013-06-05 16:16:00,
2013-06-05 12:21:00,75.8,69.7,29.08,NNE,22,0.0,6.5,81,0.00,,,0.00,Rainwise IP-100,2013-06-05 16:21:00,
2013-06-05 12:26:00,75.8,69.7,29.08,NNE,22,0.0,2.8,81,0.00,,,0.00,Rainwise IP-100,2013-06-05 16:26:00,
2013-06-05 12:31:00,75.8,70.0,29.08,NNE,22,0.0,1.9,82,0.00,,,0.00,Rainwise IP-100,2013-06-05 16:31:00,
2013-06-05 12:36:00,75.9,70.0,29.08,North,0,1.2,0.0,82,0.00,,,0.00,Rainwise IP-100,2013-06-05 16:36:00,
2013-06-05 12:41:00,76.0,70.0,29.08,NNE,22,1.9,3.7,82,0.00,,,0.00,Rainwise IP-100,2013-06-05 16:41:00,
2013-06-05 12:46:00,76.2,70.0,29.07,NNE,22,0.0,2.6,81,0.00,,,0.00,Rainwise IP-100,2013-06-05 16:46:00,
2013-06-05 12:51:00,76.3,70.0,29.06,SSW,202,0.0,2.1,81,0.00,,,0.00,Rainwise IP-100,2013-06-05 16:51:00,
2013-06-05 12:56:00,76.4,70.5,29.06,NNW,337,0.0,3.0,81,0.00,,,0.00,Rainwise IP-100,2013-06-05 16:56:00,
2013-06-05 13:01:00,76.6,70.5,29.06,NNE,22,2.1,5.4,81,0.00,,,0.00,Rainwise IP-100,2013-06-05 17:01:00,
2013-06-05 13:06:00,76.9,71.0,29.06,NNE,22,2.8,6.5,81,0.00,,,0.00,Rainwise IP-100,2013-06-05 17:06:00,
2013-06-05 13:12:00,77.4,71.0,29.06,SSE,157,0.0,4.4,80,0.00,,,0.00,Rainwise IP-100,2013-06-05 17:12:00,
2013-06-05 13:17:00,77.9,71.3,29.06,NNE,22,2.3,4.2,79,0.00,,,0.00,Rainwise IP-100,2013-06-05 17:17:00,
2013-06-05 13:22:00,78.3,71.0,29.05,NNE,22,0.0,5.6,78,0.00,,,0.00,Rainwise IP-100,2013-06-05 17:22:00,
2013-06-05 13:27:00,78.5,71.0,29.05,NNE,22,0.0,1.4,77,0.00,,,0.00,Rainwise IP-100,2013-06-05 17:27:00,
2013-06-05 13:32:00,78.7,71.0,29.05,South,180,0.0,4.4,77,0.00,,,0.00,Rainwise IP-100,2013-06-05 17:32:00,
2013-06-05 13:37:00,78.8,71.0,29.05,NNE,22,7.0,7.0,77,0.00,,,0.00,Rainwise IP-100,2013-06-05 17:37:00,
2013-06-05 13:42:00,78.9,71.0,29.04,WSW,247,0.0,7.7,76,0.00,,,0.00,Rainwise IP-100,2013-06-05 17:42:00,
2013-06-05 13:46:00,79.0,71.0,29.04,NNE,22,0.0,5.4,76,0.00,,,0.00,Rainwise IP-100,2013-06-05 17:46:00,
2013-06-05 13:51:00,79.1,71.0,29.04,South,180,3.0,6.1,76,0.00,,,0.00,Rainwise IP-100,2013-06-05 17:51:00,
2013-06-05 13:56:00,78.9,71.0,29.04,South,180,0.0,3.3,76,0.00,,,0.00,Rainwise IP-100,2013-06-05 17:56:00,
2013-06-05 14:01:00,78.8,70.5,29.04,North,0,0.0,2.8,76,0.00,,,0.00,Rainwise IP-100,2013-06-05 18:01:00,
2013-06-05 14:06:00,79.0,71.0,29.03,WNW,292,0.0,2.3,76,0.00,,,0.00,Rainwise IP-100,2013-06-05 18:06:00,
2013-06-05 14:11:00,79.1,70.5,29.02,NNE,22,2.3,5.6,75,0.00,,,0.00,Rainwise IP-100,2013-06-05 18:11:00,
2013-06-05 14:16:00,79.2,71.0,29.02,NNE,22,0.0,3.3,75,0.00,,,0.00,Rainwise IP-100,2013-06-05 18:16:00,
2013-06-05 14:21:00,79.3,71.0,29.03,SSW,202,0.0,2.3,75,0.00,,,0.00,Rainwise IP-100,2013-06-05 18:21:00,
2013-06-05 14:26:00,79.4,71.3,29.02,North,0,0.0,2.6,76,0.00,,,0.00,Rainwise IP-100,2013-06-05 18:26:00,
2013-06-05 14:31:00,79.7,71.3,29.02,NNW,337,0.0,1.6,75,0.00,,,0.00,Rainwise IP-100,2013-06-05 18:31:00,
2013-06-05 14:36:00,80.2,71.3,29.01,SSW,202,0.0,2.3,74,0.00,,,0.00,Rainwise IP-100,2013-06-05 18:36:00,
2013-06-05 14:41:00,80.5,71.3,29.01,NNW,337,0.0,3.5,73,0.00,,,0.00,Rainwise IP-100,2013-06-05 18:41:00,
2013-06-05 14:46:00,81.0,71.3,29.00,NNW,337,1.4,5.8,72,0.00,,,0.00,Rainwise IP-100,2013-06-05 18:46:00,
2013-06-05 14:51:00,81.5,71.7,29.00,NNE,22,2.1,3.3,72,0.00,,,0.00,Rainwise IP-100,2013-06-05 18:51:00,
2013-06-05 14:56:00,81.7,71.3,28.99,North,0,0.0,5.4,71,0.00,,,0.00,Rainwise IP-100,2013-06-05 18:56:00,
2013-06-05 15:01:00,81.7,71.0,28.99,SSE,157,0.0,3.0,70,0.00,,,0.00,Rainwise IP-100,2013-06-05 19:01:00,
2013-06-05 15:06:00,81.5,71.0,28.98,South,180,1.6,5.6,70,0.00,,,0.00,Rainwise IP-100,2013-06-05 19:06:00,
2013-06-05 15:11:00,81.5,71.0,28.98,South,180,0.0,8.2,70,0.00,,,0.00,Rainwise IP-100,2013-06-05 19:11:00,
2013-06-05 15:16:00,81.7,71.0,28.97,South,180,0.0,2.8,70,0.00,,,0.00,Rainwise IP-100,2013-06-05 19:16:00,
2013-06-05 15:21:00,81.6,71.0,28.98,WSW,247,0.0,2.8,70,0.00,,,0.00,Rainwise IP-100,2013-06-05 19:21:00,
2013-06-05 15:26:00,81.6,70.5,28.97,SSW,202,1.2,2.1,69,0.00,,,0.00,Rainwise IP-100,2013-06-05 19:26:00,
2013-06-05 15:31:00,81.7,70.5,28.98,NNE,22,2.6,2.6,69,0.00,,,0.00,Rainwise IP-100,2013-06-05 19:31:00,
2013-06-05 15:36:00,82.2,70.5,28.98,NNE,22,0.0,3.5,68,0.00,,,0.00,Rainwise IP-100,2013-06-05 19:36:00,
2013-06-05 15:41:00,82.6,71.0,28.98,NNE,22,0.0,4.0,68,0.00,,,0.00,Rainwise IP-100,2013-06-05 19:41:00,
2013-06-05 15:46:00,82.6,70.5,28.98,NNE,22,1.6,3.0,67,0.00,,,0.00,Rainwise IP-100,2013-06-05 19:46:00,
2013-06-05 15:51:00,82.4,70.5,28.98,NNW,337,0.0,3.0,67,0.00,,,0.00,Rainwise IP-100,2013-06-05 19:51:00,
2013-06-05 15:57:00,82.1,70.0,28.97,NNW,337,0.0,2.1,67,0.00,,,0.00,Rainwise IP-100,2013-06-05 19:57:00,
2013-06-05 16:02:00,81.8,70.0,28.97,NNW,337,0.0,0.0,68,0.00,,,0.00,Rainwise IP-100,2013-06-05 20:02:00,
2013-06-05 16:07:00,81.6,70.5,28.98,NNW,337,0.0,0.0,69,0.00,,,0.00,Rainwise IP-100,2013-06-05 20:07:00,
2013-06-05 16:12:00,81.3,71.3,28.97,NNW,337,0.0,0.0,71,0.00,,,0.00,Rainwise IP-100,2013-06-05 20:12:00,
2013-06-05 16:17:00,81.1,71.3,28.97,NNW,337,0.0,0.0,72,0.00,,,0.00,Rainwise IP-100,2013-06-05 20:17:00,
2013-06-05 16:22:00,80.9,71.3,28.97,SSW,202,0.0,1.4,72,0.00,,,0.00,Rainwise IP-100,2013-06-05 20:22:00,
2013-06-05 16:27:00,80.7,71.0,28.98,SSW,202,0.0,1.2,72,0.00,,,0.00,Rainwise IP-100,2013-06-05 20:27:00,
2013-06-05 16:32:00,80.5,71.7,28.98,SSW,202,0.0,0.0,74,0.00,,,0.00,Rainwise IP-100,2013-06-05 20:32:00,
2013-06-05 16:37:00,80.3,71.7,28.98,SSW,202,0.0,0.0,75,0.00,,,0.00,Rainwise IP-100,2013-06-05 20:37:00,
2013-06-05 16:42:00,80.0,71.7,28.98,SSW,202,0.0,0.0,76,0.00,,,0.00,Rainwise IP-100,2013-06-05 20:42:00,
2013-06-05 16:47:00,79.8,71.7,28.98,SSW,202,0.0,0.0,76,0.00,,,0.00,Rainwise IP-100,2013-06-05 20:47:00,
2013-06-05 16:52:00,79.9,72.0,28.98,SSW,202,0.0,0.0,77,0.00,,,0.00,Rainwise IP-100,2013-06-05 20:52:00,
2013-06-05 16:57:00,80.2,72.0,28.97,SSW,202,0.0,0.0,76,0.00,,,0.00,Rainwise IP-100,2013-06-05 20:57:00,
2013-06-05 17:02:00,80.5,72.0,28.97,SSW,202,0.0,1.2,75,0.00,,,0.00,Rainwise IP-100,2013-06-05 21:02:00,
2013-06-05 17:07:00,80.6,72.0,28.97,SSW,202,0.0,0.0,75,0.00,,,0.00,Rainwise IP-100,2013-06-05 21:07:00,
2013-06-05 17:12:00,80.7,71.7,28.97,SSW,202,0.0,0.0,74,0.00,,,0.00,Rainwise IP-100,2013-06-05 21:12:00,
2013-06-05 17:17:00,80.7,72.3,28.97,SSW,202,1.4,1.6,75,0.00,,,0.00,Rainwise IP-100,2013-06-05 21:17:00,
2013-06-05 17:22:00,80.8,72.3,28.96,SSW,202,0.0,3.5,75,0.00,,,0.00,Rainwise IP-100,2013-06-05 21:22:00,
2013-06-05 17:27:00,80.8,72.3,28.95,SSW,202,0.0,0.0,75,0.00,,,0.00,Rainwise IP-100,2013-06-05 21:27:00,
2013-06-05 17:32:00,80.8,72.3,28.95,SSW,202,0.0,0.0,75,0.00,,,0.00,Rainwise IP-100,2013-06-05 21:32:00,
2013-06-05 17:37:00,80.9,72.0,28.94,SSW,202,0.0,0.0,74,0.00,,,0.00,Rainwise IP-100,2013-06-05 21:37:00,
2013-06-05 17:42:00,81.0,71.7,28.94,SSW,202,0.0,1.9,73,0.00,,,0.00,Rainwise IP-100,2013-06-05 21:42:00,
2013-06-05 17:47:00,81.1,71.7,28.95,SSW,202,0.0,0.0,73,0.00,,,0.00,Rainwise IP-100,2013-06-05 21:47:00,
2013-06-05 17:52:00,81.1,71.7,28.94,SSW,202,0.0,0.0,73,0.00,,,0.00,Rainwise IP-100,2013-06-05 21:52:00,
2013-06-05 17:57:00,81.1,72.0,28.94,SSW,202,0.0,0.0,74,0.00,,,0.00,Rainwise IP-100,2013-06-05 21:57:00,
2013-06-05 18:02:00,81.0,72.3,28.94,SSW,202,0.0,0.0,75,0.00,,,0.00,Rainwise IP-100,2013-06-05 22:02:00,
2013-06-05 18:07:00,81.0,72.3,28.94,SSW,202,0.0,0.0,75,0.00,,,0.00,Rainwise IP-100,2013-06-05 22:07:00,
2013-06-05 18:12:00,80.9,72.7,28.94,SSW,202,0.0,0.0,76,0.00,,,0.00,Rainwise IP-100,2013-06-05 22:12:00,
2013-06-05 18:17:00,80.7,72.7,28.94,SSW,202,0.0,0.0,76,0.00,,,0.00,Rainwise IP-100,2013-06-05 22:17:00,
2013-06-05 18:22:00,80.4,72.3,28.94,SSW,202,0.0,0.0,76,0.00,,,0.00,Rainwise IP-100,2013-06-05 22:22:00,
2013-06-05 18:27:00,79.9,72.0,28.94,SSW,202,0.0,0.0,77,0.00,,,0.00,Rainwise IP-100,2013-06-05 22:27:00,
2013-06-05 18:32:00,79.2,72.3,28.94,NNE,22,0.0,3.3,79,0.00,,,0.00,Rainwise IP-100,2013-06-05 22:32:00,
2013-06-05 18:37:00,78.5,71.7,28.94,NNW,337,0.0,2.8,79,0.00,,,0.00,Rainwise IP-100,2013-06-05 22:37:00,
2013-06-05 18:42:00,78.0,71.0,28.94,North,0,1.2,6.1,78,0.00,,,0.00,Rainwise IP-100,2013-06-05 22:42:00,
2013-06-05 18:47:00,77.6,70.5,28.94,NNE,22,0.0,2.1,78,0.00,,,0.00,Rainwise IP-100,2013-06-05 22:47:00,
2013-06-05 18:52:00,77.1,71.0,28.94,NNE,22,0.0,1.2,81,0.00,,,0.00,Rainwise IP-100,2013-06-05 22:52:00,
2013-06-05 18:57:00,76.3,71.0,28.95,NNE,22,0.0,0.0,83,0.00,,,0.00,Rainwise IP-100,2013-06-05 22:57:00,
2013-06-05 19:02:00,75.4,71.0,28.95,NNE,22,0.0,1.6,85,0.00,,,0.00,Rainwise IP-100,2013-06-05 23:02:00,
2013-06-05 19:07:00,74.9,71.3,28.95,North,0,0.0,2.3,87,0.00,,,0.00,Rainwise IP-100,2013-06-05 23:07:00,
2013-06-05 19:12:00,74.4,71.0,28.95,East,90,0.0,2.3,88,0.06,,,0.01,Rainwise IP-100,2013-06-05 23:12:00,
2013-06-05 19:17:00,73.6,70.5,28.97,North,0,2.6,6.1,89,0.06,,,0.01,Rainwise IP-100,2013-06-05 23:17:00,
2013-06-05 19:22:00,72.8,69.7,28.99,NW,315,0.0,6.3,90,0.06,,,0.02,Rainwise IP-100,2013-06-05 23:22:00,
2013-06-05 19:27:00,72.0,69.3,28.98,NNW,337,0.0,6.3,91,0.12,,,0.04,Rainwise IP-100,2013-06-05 23:27:00,
2013-06-05 19:32:00,71.2,68.5,28.99,SSW,202,0.0,4.0,91,0.18,,,0.05,Rainwise IP-100,2013-06-05 23:32:00,
2013-06-05 19:37:00,70.5,68.0,28.99,NNE,22,1.9,4.7,92,0.18,,,0.06,Rainwise IP-100,2013-06-05 23:37:00,
2013-06-05 19:42:00,70.1,68.0,28.99,NNE,22,0.0,4.2,93,0.18,,,0.08,Rainwise IP-100,2013-06-05 23:42:00,
2013-06-05 19:47:00,69.8,68.0,29.00,NNE,22,0.0,3.0,94,0.18,,,0.09,Rainwise IP-100,2013-06-05 23:47:00,
2013-06-05 19:52:00,69.7,68.0,29.00,NNW,337,0.0,1.2,94,0.12,,,0.11,Rainwise IP-100,2013-06-05 23:52:00,
2013-06-05 19:57:00,69.6,68.0,29.00,NNW,337,0.0,1.6,94,0.18,,,0.12,Rainwise IP-100,2013-06-05 23:57:00,
2013-06-05 20:02:00,69.6,68.0,29.00,WNW,292,0.0,3.3,95,0.18,,,0.13,Rainwise IP-100,2013-06-06 00:02:00,
2013-06-05 20:07:00,69.5,68.0,29.00,NNW,337,0.0,1.6,95,0.12,,,0.14,Rainwise IP-100,2013-06-06 00:07:00,
2013-06-05 20:12:00,69.4,67.5,29.00,NNW,337,0.0,0.0,95,0.18,,,0.16,Rainwise IP-100,2013-06-06 00:12:00,
2013-06-05 20:17:00,69.3,67.5,29.00,NNW,337,0.0,0.0,95,0.18,,,0.17,Rainwise IP-100,2013-06-06 00:17:00,
2013-06-05 20:22:00,69.3,67.5,29.00,NNW,337,0.0,0.0,95,0.12,,,0.18,Rainwise IP-100,2013-06-06 00:22:00,
2013-06-05 20:27:00,69.2,67.5,29.00,NNW,337,0.0,0.0,95,0.12,,,0.20,Rainwise IP-100,2013-06-06 00:27:00,
2013-06-05 20:32:00,69.2,68.0,28.99,NNW,337,0.0,2.1,96,0.12,,,0.21,Rainwise IP-100,2013-06-06 00:32:00,
2013-06-05 20:37:00,69.2,68.0,28.99,NNW,337,0.0,1.9,96,0.18,,,0.22,Rainwise IP-100,2013-06-06 00:37:00,
2013-06-05 20:42:00,69.0,67.5,29.00,NNW,337,0.0,1.6,96,0.18,,,0.23,Rainwise IP-100,2013-06-06 00:42:00,
2013-06-05 20:47:00,68.9,67.5,28.99,NNW,337,1.2,1.4,96,0.12,,,0.24,Rainwise IP-100,2013-06-06 00:47:00,
2013-06-05 20:52:00,68.9,67.5,28.99,NNW,337,0.0,1.4,96,0.12,,,0.25,Rainwise IP-100,2013-06-06 00:52:00,
2013-06-05 20:57:00,69.0,67.5,28.99,NNW,337,0.0,0.0,96,0.12,,,0.26,Rainwise IP-100,2013-06-06 00:57:00,
2013-06-05 21:02:00,69.0,67.5,28.99,NNW,337,0.0,0.0,96,0.12,,,0.28,Rainwise IP-100,2013-06-06 01:02:00,
2013-06-05 21:07:00,69.0,67.5,28.99,NNW,337,0.0,0.0,96,0.12,,,0.29,Rainwise IP-100,2013-06-06 01:07:00,
2013-06-05 21:12:00,69.1,68.0,28.99,SW,225,0.0,0.0,97,0.18,,,0.30,Rainwise IP-100,2013-06-06 01:12:00,
2013-06-05 21:17:00,69.2,68.5,29.00,SW,225,0.0,0.0,97,0.12,,,0.31,Rainwise IP-100,2013-06-06 01:17:00,
2013-06-05 21:22:00,69.3,68.5,29.00,SW,225,0.0,0.0,97,0.12,,,0.32,Rainwise IP-100,2013-06-06 01:22:00,
2013-06-05 21:27:00,69.4,68.5,29.00,SW,225,0.0,0.0,97,0.12,,,0.33,Rainwise IP-100,2013-06-06 01:27:00,
2013-06-05 21:32:00,69.3,68.5,29.00,SW,225,0.0,0.0,97,0.12,,,0.34,Rainwise IP-100,2013-06-06 01:32:00,
2013-06-05 21:37:00,69.3,68.5,29.00,SW,225,0.0,0.0,97,0.12,,,0.34,Rainwise IP-100,2013-06-06 01:37:00,
2013-06-05 21:42:00,69.4,68.5,29.00,SW,225,0.0,0.0,97,0.06,,,0.36,Rainwise IP-100,2013-06-06 01:42:00,
2013-06-05 21:47:00,69.4,68.5,29.01,SW,225,0.0,1.4,97,0.12,,,0.36,Rainwise IP-100,2013-06-06 01:47:00,
2013-06-05 21:52:00,69.5,69.0,29.01,SW,225,0.0,0.0,97,0.12,,,0.37,Rainwise IP-100,2013-06-06 01:52:00,
2013-06-05 21:57:00,69.4,68.5,29.00,SW,225,0.0,0.0,97,0.12,,,0.38,Rainwise IP-100,2013-06-06 01:57:00,
2013-06-05 22:02:00,69.4,68.5,29.00,SW,225,0.0,0.0,97,0.12,,,0.39,Rainwise IP-100,2013-06-06 02:02:00,
2013-06-05 22:07:00,69.4,68.5,29.00,SW,225,0.0,0.0,97,0.12,,,0.40,Rainwise IP-100,2013-06-06 02:07:00,
2013-06-05 22:12:00,69.4,68.5,29.01,SW,225,0.0,0.0,97,0.06,,,0.40,Rainwise IP-100,2013-06-06 02:12:00,
2013-06-05 22:17:00,69.4,68.5,29.01,SW,225,0.0,0.0,97,0.06,,,0.41,Rainwise IP-100,2013-06-06 02:17:00,
2013-06-05 22:22:00,69.4,68.5,29.01,SW,225,0.0,0.0,97,0.12,,,0.42,Rainwise IP-100,2013-06-06 02:22:00,
2013-06-05 22:27:00,69.5,69.0,29.01,SW,225,0.0,0.0,97,0.06,,,0.43,Rainwise IP-100,2013-06-06 02:27:00,
2013-06-05 22:32:00,69.4,68.5,29.00,NW,315,0.0,0.0,97,0.06,,,0.44,Rainwise IP-100,2013-06-06 02:32:00,
2013-06-05 22:37:00,69.4,68.5,29.00,NNE,22,0.0,2.1,97,0.12,,,0.44,Rainwise IP-100,2013-06-06 02:37:00,
2013-06-05 22:42:00,69.4,69.0,29.00,NNE,22,0.0,2.1,98,0.12,,,0.45,Rainwise IP-100,2013-06-06 02:42:00,
2013-06-05 22:47:00,69.2,69.0,29.00,SW,225,0.0,1.6,98,0.12,,,0.46,Rainwise IP-100,2013-06-06 02:47:00,
2013-06-05 22:52:00,69.1,68.5,29.00,SW,225,0.0,1.4,98,0.06,,,0.46,Rainwise IP-100,2013-06-06 02:52:00,
2013-06-05 22:57:00,68.9,68.5,29.00,NNE,22,1.4,0.0,98,0.06,,,0.47,Rainwise IP-100,2013-06-06 02:57:00,
2013-06-05 23:02:00,68.9,68.5,29.00,NNE,22,0.0,2.6,98,0.12,,,0.48,Rainwise IP-100,2013-06-06 03:02:00,
2013-06-05 23:07:00,68.9,68.5,29.00,NNE,22,0.0,0.0,98,0.06,,,0.48,Rainwise IP-100,2013-06-06 03:07:00,
2013-06-05 23:12:00,68.8,68.5,29.00,SSE,157,0.0,0.0,98,0.06,,,0.49,Rainwise IP-100,2013-06-06 03:12:00,
2013-06-05 23:17:00,68.7,68.0,29.00,SSE,157,0.0,0.0,98,0.06,,,0.50,Rainwise IP-100,2013-06-06 03:17:00,
2013-06-05 23:22:00,68.7,68.0,28.99,SSE,157,0.0,0.0,98,0.06,,,0.50,Rainwise IP-100,2013-06-06 03:22:00,
2013-06-05 23:27:00,68.7,68.0,28.99,SSE,157,0.0,0.0,98,0.06,,,0.50,Rainwise IP-100,2013-06-06 03:27:00,
2013-06-05 23:32:00,68.7,68.0,28.99,SSE,157,0.0,0.0,98,0.06,,,0.51,Rainwise IP-100,2013-06-06 03:32:00,
2013-06-05 23:37:00,68.7,68.0,28.98,WSW,247,0.0,0.0,98,0.12,,,0.52,Rainwise IP-100,2013-06-06 03:37:00,
2013-06-05 23:42:00,68.7,68.0,28.98,WSW,247,0.0,0.0,98,0.06,,,0.52,Rainwise IP-100,2013-06-06 03:42:00,
2013-06-05 23:47:00,68.6,68.0,28.98,West,270,0.0,0.0,98,0.00,,,0.52,Rainwise IP-100,2013-06-06 03:47:00,
2013-06-05 23:52:00,68.5,68.0,28.97,NW,315,0.0,0.0,98,0.06,,,0.53,Rainwise IP-100,2013-06-06 03:52:00,
2013-06-05 23:57:00,68.5,68.0,28.97,NW,315,0.0,0.0,98,0.12,,,0.54,Rainwise IP-100,2013-06-06 03:57:00,